DateTimeUTC,F1_A11,F1_S11,BsB_S11,BsG_S11,BsR_S11,BbsB_S11,BbsG_S11,BbsR_S11,BaB_A11,BaG_A11,BaR_A11,Tu_S11,T_S11,Uu_S11,U_S11,P_S11,T1_A11
2021-04-20T13:00:00Z,00000200,21000000,,,,,,,0000.02,-000.13,-000.27,16.3,23.7,,00.0,0654.3,30.9
2021-04-20T13:01:00Z,00000200,21000000,,,,,,,0000.06,-000.14,0000.30,16.2,23.7,,00.0,0654.3,30.9
2021-04-20T13:02:00Z,00000200,21000000,,,,,,,-000.02,0000.37,-000.16,16.2,23.7,,00.0,0654.3,30.9
2021-04-20T13:03:00Z,00000200,61000000,,,,,,,0001.06,0000.98,0001.05,16.2,23.7,,00.0,0654.3,30.9
2021-04-20T13:04:00Z,00000200,41000000,0002.57,0001.57,0001.10,0000.74,0000.67,0000.12,0000.92,0000.60,0000.18,16.2,23.4,,00.0,0655.2,30.9
2021-04-20T13:05:00Z,00000200,01000000,0002.49,0001.60,0000.88,0000.28,0000.44,0000.32,0000.77,0000.74,0000.70,16.2,23.3,,00.0,0655.3,30.9
2021-04-20T13:06:00Z,00000200,01000000,0002.42,0001.60,0001.05,0000.38,0000.37,0000.22,0000.96,0001.21,0001.08,16.1,23.3,,00.0,0655.3,30.9
2021-04-20T13:07:00Z,00000200,01000000,0002.58,0001.49,0000.91,0000.94,0000.45,0000.38,0001.44,0001.00,0000.81,16.2,23.3,,00.0,0655.3,30.9
2021-04-20T13:08:00Z,00000200,01000000,0002.29,0001.23,0000.98,0000.47,0000.45,0000.09,0000.85,0000.75,0000.79,16.2,23.3,,00.0,0655.3,30.9
2021-04-20T13:09:00Z,00000200,01000000,0002.53,0001.61,0001.04,0000.82,0000.21,0000.52,0001.06,0000.77,0000.52,16.3,23.3,,00.0,0655.3,30.9
2021-04-20T13:10:00Z,00000200,01000000,0002.71,0001.68,0000.87,0000.48,0000.60,0000.24,0000.63,0000.95,0000.34,16.3,23.3,,00.0,0655.3,30.9
2021-04-20T13:11:00Z,00000200,01000000,0002.55,0001.58,0001.09,0001.10,0000.43,0000.27,0000.57,0000.77,0000.61,16.4,23.3,,00.0,0655.3,30.9
2021-04-20T13:12:00Z,00000200,01000000,0002.35,0001.42,0000.84,0001.14,0000.14,0000.20,0001.04,0000.60,0000.42,16.4,23.3,,00.0,0655.3,30.9
2021-04-20T13:13:00Z,00000200,01000000,0002.79,0001.62,0000.91,0001.00,0000.54,0000.21,0000.79,0000.62,0000.81,16.4,23.3,,00.0,0655.3,30.9
2021-04-20T13:14:00Z,00000200,01000000,0002.44,0001.47,0001.04,0001.01,0000.32,0000.22,0000.96,0001.32,0000.58,16.4,23.3,,00.0,0655.3,30.9
2021-04-20T13:15:00Z,00000200,01000000,0002.69,0001.36,0000.95,0000.21,0000.52,-000.01,0001.18,0000.81,0000.76,16.3,23.3,,00.0,0655.4,30.9
2021-04-20T13:16:00Z,00000200,01000000,0002.83,0001.56,0001.10,0000.46,0000.66,0000.42,0000.69,0000.39,0000.55,16.3,23.3,,00.0,0655.3,30.9
2021-04-20T13:17:00Z,00000200,01000000,0003.27,0001.44,0001.01,0000.42,0000.52,0000.25,0000.91,0000.96,0000.53,16.3,23.3,,00.0,0655.4,30.9
2021-04-20T13:18:00Z,00000200,01000000,0002.39,0001.54,0001.32,0000.31,0000.47,0000.38,0001.17,0001.12,0000.81,16.3,23.3,,00.0,0655.4,30.9
2021-04-20T13:19:00Z,00000200,01000000,0002.94,0001.54,0001.06,0000.33,0000.74,0000.29,0000.93,0000.65,0000.97,16.3,23.3,,00.0,0655.4,30.9
2021-04-20T13:20:00Z,00000200,01000000,0002.52,0001.59,0000.77,0000.63,0000.56,0000.35,0000.94,0001.10,0000.30,16.3,23.3,,00.0,0655.4,30.9
2021-04-20T13:21:00Z,00000200,01000000,0002.58,0001.59,0000.84,0000.14,0000.57,-000.17,0001.10,0001.11,0000.91,16.3,23.2,,00.0,0655.4,30.9
2021-04-20T13:22:00Z,00000200,01000000,0002.18,0001.37,0000.94,0000.95,0000.29,0000.13,0001.34,0000.72,0001.05,16.3,23.2,,00.0,0655.4,30.9
2021-04-20T13:23:00Z,00000200,01000000,0002.59,0001.56,0001.00,0000.52,0000.65,0000.43,0000.95,0001.26,0000.74,16.4,23.3,,00.0,0655.4,30.9
2021-04-20T13:24:00Z,00000200,01000000,0002.81,0001.56,0001.00,0000.53,0000.70,0000.35,0001.10,0001.07,0000.64,16.5,23.3,,00.0,0655.4,31.0
2021-04-20T13:25:00Z,00000200,01000000,0002.38,0001.64,0000.94,0000.87,0000.42,0000.16,0001.18,0000.94,0000.81,16.7,23.4,,00.0,0655.4,31.0
2021-04-20T13:26:00Z,00000200,01000000,0003.16,0001.83,0000.92,0000.21,0000.44,0000.20,0000.65,0000.86,0000.59,16.7,23.5,,00.0,0655.4,31.0
2021-04-20T13:27:00Z,00000200,01000000,0002.32,0001.24,0000.95,0000.75,0000.40,0000.36,0001.47,0001.22,0000.99,16.8,23.5,,00.0,0655.4,31.0
2021-04-20T13:28:00Z,00000200,01000000,0003.28,0001.47,0001.03,0000.48,0000.62,0000.33,0000.52,0000.90,0000.45,16.8,23.5,,00.0,0655.4,31.0
2021-04-20T13:29:00Z,00000200,01000000,0002.60,0001.61,0000.93,0000.81,0000.61,0000.24,0000.74,0000.52,0000.68,16.8,23.5,,00.0,0655.4,31.0
2021-04-20T13:30:00Z,00000200,01000000,0002.54,0001.33,0001.05,0000.71,0000.59,0000.20,0001.59,0000.87,0000.64,16.8,23.5,,00.0,0655.4,31.0
2021-04-20T13:31:00Z,00000200,01000000,0002.74,0001.58,0000.86,0000.70,0000.68,0000.22,0000.39,0000.69,0000.43,16.7,23.5,,00.0,0655.4,31.0
2021-04-20T13:32:00Z,00000200,01000000,0002.62,0001.52,0000.96,0000.53,0000.43,0000.31,0001.18,0000.67,0000.73,16.7,23.4,,00.0,0655.4,30.9
2021-04-20T13:33:00Z,00000200,01000000,0001.94,0001.71,0001.23,0000.37,0000.47,0000.21,0000.90,0000.94,0000.94,16.6,23.4,,00.0,0655.4,30.9
2021-04-20T13:34:00Z,00000200,01000000,0002.81,0001.82,0000.68,0000.78,0000.28,0000.32,0001.12,0000.95,0000.29,16.5,23.4,,00.0,0655.4,30.9
2021-04-20T13:35:00Z,00000200,01000000,0002.50,0001.68,0001.04,0000.64,0000.62,0000.44,0000.67,0000.67,0000.62,16.5,23.4,,00.0,0655.4,30.9
2021-04-20T13:36:00Z,00000200,01000000,0002.93,0001.66,0001.15,0000.57,0000.42,0000.16,0001.31,0000.97,0000.85,16.5,23.3,,00.0,0655.4,30.9
2021-04-20T13:37:00Z,00000200,01000000,0002.58,0001.28,0001.01,0000.60,0000.65,0000.42,0000.75,0000.88,0000.69,16.5,23.3,,00.0,0655.4,30.9
2021-04-20T13:38:00Z,00000200,01000000,0002.43,0001.46,0000.96,0000.38,0000.46,0000.06,0001.07,0000.95,0000.75,16.6,23.3,,00.0,0655.4,30.9
2021-04-20T13:39:00Z,00000200,01000000,0002.36,0001.76,0001.12,0000.71,0000.54,0000.50,0001.02,0000.78,0000.43,16.6,23.4,,00.0,0655.4,30.9
2021-04-20T13:40:00Z,00000200,01000000,0001.97,0001.62,0001.11,0000.72,0000.42,0000.19,0000.77,0000.89,0000.65,16.6,23.4,,00.0,0655.4,30.9
2021-04-20T13:41:00Z,00000200,01000000,0003.39,0001.60,0000.70,0000.34,0000.22,0000.22,0000.78,0000.87,0000.69,16.6,23.4,,00.0,0655.4,30.9
2021-04-20T13:42:00Z,00000200,01000000,0002.73,0001.49,0001.20,0000.65,0000.61,0000.51,0001.14,0000.85,0000.56,16.6,23.4,,00.0,0655.4,30.9
2021-04-20T13:43:00Z,00000200,01000000,0003.11,0002.12,0001.00,0000.95,0000.44,0000.51,0001.17,0001.01,0000.98,16.6,23.4,,00.0,0655.4,30.9
2021-04-20T13:44:00Z,00000200,01000000,0001.87,0001.40,0001.04,0001.04,0000.26,0000.19,0000.64,0000.59,0000.30,16.5,23.4,,00.0,0655.4,30.9
2021-04-20T13:45:00Z,00000200,01000000,0002.46,0001.82,0001.19,0000.81,0000.76,0000.24,0000.93,0000.98,0000.65,16.6,23.4,,00.0,0655.4,30.9
2021-04-20T13:46:00Z,00000200,01000000,0002.87,0001.49,0000.84,0000.28,0000.52,0000.15,0001.06,0000.83,0000.67,16.5,23.4,,00.0,0655.4,30.9
2021-04-20T13:47:00Z,00000200,01000000,0003.27,0001.47,0000.85,0000.18,0000.33,-000.03,0000.84,0000.88,0000.86,16.5,23.3,,00.0,0655.4,30.9
2021-04-20T13:48:00Z,00000200,01000000,0002.71,0001.53,0001.11,0000.33,0000.37,0000.18,0000.87,0000.85,0000.80,16.5,23.3,,00.0,0655.4,30.9
2021-04-20T13:49:00Z,00000200,01000000,0002.45,0001.50,0000.88,0000.44,0000.50,0000.06,0001.25,0000.69,0000.50,16.5,23.3,,00.0,0655.4,30.9
2021-04-20T13:50:00Z,00000200,01000000,0002.61,0001.86,0001.38,0000.84,0000.37,0000.51,0000.57,0001.03,0000.43,16.5,23.3,,00.0,0655.4,30.9
2021-04-20T13:51:00Z,00000200,01000000,0003.39,0001.68,0000.96,0000.70,0000.53,-000.12,0001.16,0001.08,0001.08,16.5,23.3,,00.0,0655.4,30.9
2021-04-20T13:52:00Z,00000200,01000000,0003.32,0001.59,0001.01,0000.25,0000.40,0000.18,0001.24,0001.12,0000.84,16.4,23.3,,00.0,0655.4,31.0
2021-04-20T13:53:00Z,00000200,01000000,0002.62,0001.43,0001.15,0000.59,0000.43,0000.15,0001.13,0001.12,0000.72,16.5,23.3,,00.0,0655.4,31.0
2021-04-20T13:54:00Z,00000200,01000000,0002.34,0001.66,0001.00,0000.31,0000.61,0000.32,0000.87,0000.53,0000.83,16.6,23.4,,00.0,0655.4,31.0
2021-04-20T13:55:00Z,00000200,01000000,0002.93,0001.34,0001.22,0000.32,0000.79,0000.07,0000.99,0001.10,0000.48,16.6,23.4,,00.0,0655.3,31.0
2021-04-20T13:56:00Z,00000200,01000000,0002.74,0001.62,0001.21,0000.63,0000.47,0000.23,0000.76,0001.21,0000.68,16.7,23.5,,00.0,0655.3,31.0
2021-04-20T13:57:00Z,00000200,41000000,,,,,,,0000.10,-000.71,-000.24,16.8,23.5,,00.0,0655.3,31.0
2021-04-20T13:58:00Z,00000200,61000000,,,,,,,0000.00,0000.04,-000.01,16.5,23.6,,00.0,0654.4,31.0
2021-04-20T13:59:00Z,00000200,21000000,,,,,,,0000.25,0000.82,0000.34,16.5,23.7,,00.0,0654.4,31.0
